Change the Weather History Date:

Wednesday, February 27, 2013

  Actual Average Record
Temperature  
Mean Temperature 38 °F -  
Max Temperature 47 °F - - ()
Min Temperature 30 °F - - ()
Degree Days  
Heating Degree Days 26    
Moisture  
Dew Point 28 °F    
Average Humidity 61    
Maximum Humidity 77    
Minimum Humidity 48    
Precipitation  
Precipitation 0.00 in - - ()
Sea Level Pressure  
Sea Level Pressure 30.24 in    
Wind  
Wind Speed 4 mph ()    
Max Wind Speed 7 mph    
Max Gust Speed -    
T = Trace of Precipitation, MM = Missing Value Source: Averaged Metar Reports

Daily Weather History Graph

Daily Weather History Graph

Search for Another Location

Airport or City:

Trip Planner

Search our weather history database for the weather conditions in past years. The results will help you decide how hot, cold, wet, or windy it might be!

Date:

Astronomy

Feb. 27, 2013 Rise Set
Actual Time 6:43 AM PST 5:38 PM PST
Civil Twilight 6:11 AM PST 6:10 PM PST
Nautical Twilight 5:34 AM PST 6:47 PM PST
Astronomical Twilight 4:57 AM PST 7:23 PM PST
Moon 8:23 PM PST (2/27) 7:06 AM PST (2/27)
Length of Visible Light 11h 59m
Length of Day
10h 55m
Waning Gibbous, 96% of the Moon is Illuminated
Feb 27
Waning Gibbous
Mar 4
Last Quarter
Mar 11
New
Mar 19
First Quarter
Mar 27
Full

Hourly Weather History & Observations

Time (PST) Temp. Windchill Dew Point Humidity Pressure Visibility Wind Dir Wind Speed Gust Speed Precip Events Conditions
12:00 AM 39.9 °F 36.7 °F 27.5 °F 61% 30.22 in - SSE 4.6 mph - N/A   Unknown
1:00 AM 38.8 °F 35.4 °F 28.4 °F 66% 30.21 in - South 4.6 mph - N/A   Unknown
2:00 AM 37.6 °F 35.1 °F 26.2 °F 64% 30.20 in - SSE 3.5 mph - N/A   Unknown
3:00 AM 37.6 °F 34.0 °F 27.1 °F 66% 30.20 in - South 4.6 mph - N/A   Unknown
4:00 AM 37 °F - 27 °F 56% 30.21 in - South 4.6 mph - -  
4:00 AM 36.7 °F 32.9 °F 27.0 °F 68% 30.21 in - South 4.6 mph - N/A   Unknown
5:00 AM 36.0 °F 32.1 °F 27.7 °F 72% 30.22 in - South 4.6 mph - N/A   Unknown
6:00 AM 35.2 °F 30.3 °F 25.9 °F 69% 30.23 in - SSE 5.8 mph - N/A   Unknown
7:00 AM 33.1 °F - 26.2 °F 76% 30.25 in - SSE 1.2 mph - N/A   Unknown
8:00 AM 35.1 °F - 28.6 °F 77% 30.27 in - ESE 1.2 mph - N/A   Unknown
9:00 AM 37.4 °F - 27.3 °F 67% 30.28 in - WSW 2.3 mph - N/A   Unknown
10:00 AM 40 °F - 28 °F 51% 30.29 in - South 5.8 mph - -  
10:00 AM 40.5 °F 36.5 °F 28.2 °F 62% 30.29 in - South 5.8 mph - N/A   Unknown
11:00 AM 43.5 °F 40.1 °F 27.1 °F 53% 30.27 in - South 5.8 mph - N/A   Unknown
12:00 PM 45.3 °F 43.0 °F 27.7 °F 50% 30.27 in - SSE 4.6 mph - N/A   Unknown
1:00 PM 45.0 °F 41.8 °F 27.7 °F 51% 30.27 in - SSE 5.8 mph - N/A   Unknown
2:00 PM 46.6 °F - 27.9 °F 48% 30.25 in - South 6.9 mph - N/A   Unknown
3:00 PM 46.8 °F - 28.0 °F 48% 30.24 in - South 5.8 mph - N/A   Unknown
5:00 PM 45.7 °F 43.4 °F 27.5 °F 49% 30.23 in - SE 4.6 mph - N/A   Unknown
6:00 PM 43.2 °F - 28.6 °F 56% 30.23 in - South 2.3 mph - N/A   Unknown
7:00 PM 44.2 °F 42.7 °F 27.9 °F 53% 30.24 in - SE 3.5 mph - N/A   Unknown
8:00 PM 41.5 °F - 29.5 °F 62% 30.24 in - NW 2.3 mph - N/A   Unknown
10:00 PM 40 °F - 30 °F 57% 30.26 in - NNE 1.2 mph - -  
11:00 PM 38.8 °F - 30.7 °F 73% 30.26 in - NW 1.2 mph - N/A   Unknown